Time,TemperatureF,DewpointF,PressureIn,WindDirection,WindDirectionDegrees,WindSpeedMPH,WindSpeedGustMPH,Humidity,HourlyPrecipIn,Conditions,Clouds,dailyrainin,SolarRadiationWatts/m^2,SoftwareType,DateUTC
2013-06-03 00:12:00,64.0,60.0,-100.00,NNE,26,6.0,13.0,87,0.00,,,0.00,0.000000,,2013-06-03 10:12:00,
2013-06-03 00:22:00,64.0,60.0,-100.00,NNE,26,6.0,13.0,87,0.00,,,0.00,0.000000,,2013-06-03 10:22:00,
2013-06-03 00:33:00,64.0,60.0,-100.00,NNE,26,6.0,13.0,87,0.00,,,0.00,0.000000,,2013-06-03 10:33:00,
2013-06-03 00:42:00,64.0,60.0,-100.00,NNE,26,6.0,13.0,87,0.00,,,0.00,0.000000,,2013-06-03 10:42:00,
2013-06-03 01:12:00,64.0,60.0,-100.00,NNW,340,5.0,10.0,87,0.00,,,0.00,0.000000,,2013-06-03 11:12:00,
2013-06-03 01:22:00,64.0,60.0,-100.00,NNW,340,5.0,10.0,87,0.00,,,0.00,0.000000,,2013-06-03 11:22:00,
2013-06-03 01:32:00,64.0,60.0,-100.00,NNW,340,5.0,10.0,87,0.00,,,0.00,0.000000,,2013-06-03 11:32:00,
2013-06-03 01:42:00,64.0,60.0,-100.00,NNW,340,5.0,10.0,87,0.00,,,0.00,0.000000,,2013-06-03 11:42:00,
2013-06-03 02:12:00,64.0,60.0,-100.00,NW,314,7.0,11.0,86,0.00,,,0.00,0.000000,,2013-06-03 12:12:00,
2013-06-03 02:22:00,64.0,60.0,-100.00,NW,314,7.0,11.0,86,0.00,,,0.00,0.000000,,2013-06-03 12:22:00,
2013-06-03 02:32:00,64.0,60.0,-100.00,NW,314,7.0,11.0,86,0.00,,,0.00,0.000000,,2013-06-03 12:32:00,
2013-06-03 02:42:00,64.0,60.0,-100.00,NW,314,7.0,11.0,86,0.00,,,0.00,0.000000,,2013-06-03 12:42:00,
2013-06-03 03:12:00,65.0,59.0,-100.00,SSW,208,2.0,12.0,80,0.00,,,0.00,0.000000,,2013-06-03 13:12:00,
2013-06-03 03:22:00,65.0,59.0,-100.00,SSW,208,2.0,12.0,80,0.00,,,0.00,0.000000,,2013-06-03 13:22:00,
2013-06-03 03:32:00,65.0,59.0,-100.00,SSW,208,2.0,12.0,80,0.00,,,0.00,0.000000,,2013-06-03 13:32:00,
2013-06-03 03:42:00,65.0,59.0,-100.00,SSW,208,2.0,12.0,80,0.00,,,0.00,0.000000,,2013-06-03 13:42:00,
2013-06-03 04:12:00,61.0,57.0,-100.00,North,352,5.0,7.0,87,0.00,,,0.00,0.000000,,2013-06-03 14:12:00,
2013-06-03 04:22:00,61.0,57.0,-100.00,North,352,5.0,7.0,87,0.00,,,0.00,0.000000,,2013-06-03 14:22:00,
2013-06-03 04:32:00,61.0,57.0,-100.00,North,352,5.0,7.0,87,0.00,,,0.00,0.000000,,2013-06-03 14:32:00,
2013-06-03 04:42:00,61.0,57.0,-100.00,North,352,5.0,7.0,87,0.00,,,0.00,0.000000,,2013-06-03 14:42:00,
2013-06-03 05:12:00,58.0,56.0,-100.00,NNE,19,4.0,7.0,93,0.00,,,0.00,0.000000,,2013-06-03 15:12:00,
2013-06-03 05:22:00,58.0,56.0,-100.00,NNE,19,4.0,7.0,93,0.00,,,0.00,0.000000,,2013-06-03 15:22:00,
2013-06-03 05:33:00,58.0,56.0,-100.00,NNE,19,4.0,7.0,93,0.00,,,0.00,0.000000,,2013-06-03 15:33:00,
2013-06-03 05:43:00,58.0,56.0,-100.00,NNE,19,4.0,7.0,93,0.00,,,0.00,0.000000,,2013-06-03 15:43:00,
2013-06-03 06:12:00,57.0,54.0,-100.00,North,356,5.0,8.0,91,0.00,,,0.00,1.000000,,2013-06-03 16:12:00,
2013-06-03 06:23:00,57.0,54.0,-100.00,North,356,5.0,8.0,91,0.00,,,0.00,1.000000,,2013-06-03 16:23:00,
2013-06-03 06:33:00,57.0,54.0,-100.00,North,356,5.0,8.0,91,0.00,,,0.00,1.000000,,2013-06-03 16:33:00,
2013-06-03 06:42:00,57.0,54.0,-100.00,North,356,5.0,8.0,91,0.00,,,0.00,1.000000,,2013-06-03 16:42:00,
2013-06-03 07:12:00,65.0,57.0,-100.00,NW,319,5.0,9.0,75,0.00,,,0.00,71.000000,,2013-06-03 17:12:00,
2013-06-03 07:22:00,65.0,57.0,-100.00,NW,319,5.0,9.0,75,0.00,,,0.00,71.000000,,2013-06-03 17:22:00,
2013-06-03 07:33:00,65.0,57.0,-100.00,NW,319,5.0,9.0,75,0.00,,,0.00,71.000000,,2013-06-03 17:33:00,
2013-06-03 07:42:00,65.0,57.0,-100.00,NW,319,5.0,9.0,75,0.00,,,0.00,71.000000,,2013-06-03 17:42:00,
2013-06-03 08:12:00,73.0,58.0,-100.00,SSW,199,4.0,10.0,60,0.00,,,0.00,304.000000,,2013-06-03 18:12:00,
2013-06-03 08:22:00,73.0,58.0,-100.00,SSW,199,4.0,10.0,60,0.00,,,0.00,304.000000,,2013-06-03 18:22:00,
2013-06-03 08:32:00,73.0,58.0,-100.00,SSW,199,4.0,10.0,60,0.00,,,0.00,304.000000,,2013-06-03 18:32:00,
2013-06-03 08:42:00,73.0,58.0,-100.00,SSW,199,4.0,10.0,60,0.00,,,0.00,304.000000,,2013-06-03 18:42:00,
2013-06-03 09:12:00,76.0,60.0,-100.00,WSW,255,7.0,12.0,58,0.00,,,0.00,523.000000,,2013-06-03 19:12:00,
2013-06-03 09:32:00,76.0,60.0,-100.00,WSW,255,7.0,12.0,58,0.00,,,0.00,523.000000,,2013-06-03 19:32:00,
2013-06-03 09:42:00,76.0,60.0,-100.00,WSW,255,7.0,12.0,58,0.00,,,0.00,523.000000,,2013-06-03 19:42:00,
2013-06-03 10:12:00,77.0,61.0,-100.00,ESE,106,9.0,19.0,58,0.00,,,0.00,713.000000,,2013-06-03 20:12:00,
2013-06-03 10:22:00,77.0,61.0,-100.00,ESE,106,9.0,19.0,58,0.00,,,0.00,713.000000,,2013-06-03 20:22:00,
2013-06-03 10:32:00,77.0,61.0,-100.00,ESE,106,9.0,19.0,58,0.00,,,0.00,713.000000,,2013-06-03 20:32:00,
2013-06-03 10:42:00,77.0,61.0,-100.00,ESE,106,9.0,19.0,58,0.00,,,0.00,713.000000,,2013-06-03 20:42:00,
2013-06-03 11:12:00,78.0,62.0,-100.00,SE,124,10.0,18.0,58,0.00,,,0.00,859.000000,,2013-06-03 21:12:00,
2013-06-03 11:22:00,78.0,62.0,-100.00,SE,124,10.0,18.0,58,0.00,,,0.00,859.000000,,2013-06-03 21:22:00,
2013-06-03 11:33:00,78.0,62.0,-100.00,SE,124,10.0,18.0,58,0.00,,,0.00,859.000000,,2013-06-03 21:33:00,
2013-06-03 11:43:00,78.0,62.0,-100.00,SE,124,10.0,18.0,58,0.00,,,0.00,859.000000,,2013-06-03 21:43:00,
2013-06-03 12:12:00,78.0,62.0,-100.00,ESE,108,11.0,24.0,57,0.00,,,0.00,948.000000,,2013-06-03 22:12:00,
2013-06-03 12:22:00,78.0,62.0,-100.00,ESE,108,11.0,24.0,57,0.00,,,0.00,948.000000,,2013-06-03 22:22:00,
2013-06-03 12:32:00,78.0,62.0,-100.00,ESE,108,11.0,24.0,57,0.00,,,0.00,948.000000,,2013-06-03 22:32:00,
2013-06-03 12:42:00,78.0,62.0,-100.00,ESE,108,11.0,24.0,57,0.00,,,0.00,948.000000,,2013-06-03 22:42:00,
2013-06-03 13:12:00,79.0,61.0,-100.00,SE,124,9.0,22.0,55,0.00,,,0.00,939.000000,,2013-06-03 23:12:00,
2013-06-03 13:22:00,79.0,61.0,-100.00,SE,124,9.0,22.0,55,0.00,,,0.00,939.000000,,2013-06-03 23:22:00,
2013-06-03 13:32:00,79.0,61.0,-100.00,SE,124,9.0,22.0,55,0.00,,,0.00,939.000000,,2013-06-03 23:32:00,
2013-06-03 13:42:00,79.0,61.0,-100.00,SE,124,9.0,22.0,55,0.00,,,0.00,939.000000,,2013-06-03 23:42:00,
2013-06-03 14:12:00,74.0,66.0,-100.00,SE,145,7.0,21.0,75,0.00,,,0.00,704.000000,,2013-06-04 00:12:00,
2013-06-03 14:22:00,74.0,66.0,-100.00,SE,145,7.0,21.0,75,0.00,,,0.00,704.000000,,2013-06-04 00:22:00,
2013-06-03 14:32:00,74.0,66.0,-100.00,SE,145,7.0,21.0,75,0.00,,,0.00,704.000000,,2013-06-04 00:32:00,
2013-06-03 14:42:00,74.0,66.0,-100.00,SE,145,7.0,21.0,75,0.00,,,0.00,704.000000,,2013-06-04 00:42:00,
2013-06-03 15:12:00,75.0,65.0,-100.00,SSE,167,7.0,13.0,70,0.00,,,0.00,340.000000,,2013-06-04 01:12:00,
2013-06-03 15:22:00,75.0,65.0,-100.00,SSE,167,7.0,13.0,70,0.00,,,0.00,340.000000,,2013-06-04 01:22:00,
2013-06-03 15:32:00,75.0,65.0,-100.00,SSE,167,7.0,13.0,70,0.00,,,0.00,340.000000,,2013-06-04 01:32:00,
2013-06-03 15:42:00,75.0,65.0,-100.00,SSE,167,7.0,13.0,70,0.00,,,0.00,340.000000,,2013-06-04 01:42:00,
2013-06-03 16:12:00,74.0,66.0,-100.00,SE,128,7.0,15.0,76,0.00,,,0.00,260.000000,,2013-06-04 02:12:00,
2013-06-03 16:22:00,74.0,66.0,-100.00,SE,128,7.0,15.0,76,0.00,,,0.00,260.000000,,2013-06-04 02:22:00,
2013-06-03 16:32:00,74.0,66.0,-100.00,SE,128,7.0,15.0,76,0.00,,,0.00,260.000000,,2013-06-04 02:32:00,
2013-06-03 16:42:00,74.0,66.0,-100.00,SE,128,7.0,15.0,76,0.00,,,0.00,260.000000,,2013-06-04 02:42:00,
2013-06-03 17:12:00,75.0,65.0,-100.00,West,270,4.0,12.0,71,0.00,,,0.00,209.000000,,2013-06-04 03:12:00,
2013-06-03 17:22:00,75.0,65.0,-100.00,West,270,4.0,12.0,71,0.00,,,0.00,209.000000,,2013-06-04 03:22:00,
2013-06-03 17:32:00,75.0,65.0,-100.00,West,270,4.0,12.0,71,0.00,,,0.00,209.000000,,2013-06-04 03:32:00,
2013-06-03 17:43:00,75.0,65.0,-100.00,West,270,4.0,12.0,71,0.00,,,0.00,209.000000,,2013-06-04 03:43:00,
2013-06-03 18:13:00,76.0,62.0,-100.00,SE,140,5.0,13.0,62,0.00,,,0.00,264.000000,,2013-06-04 04:13:00,
2013-06-03 18:23:00,76.0,62.0,-100.00,SE,140,5.0,13.0,62,0.00,,,0.00,264.000000,,2013-06-04 04:23:00,
2013-06-03 18:33:00,76.0,62.0,-100.00,SE,140,5.0,13.0,62,0.00,,,0.00,264.000000,,2013-06-04 04:33:00,
2013-06-03 18:42:00,76.0,62.0,-100.00,SE,140,5.0,13.0,62,0.00,,,0.00,264.000000,,2013-06-04 04:42:00,
2013-06-03 19:12:00,69.0,62.0,-100.00,West,280,7.0,15.0,78,0.00,,,0.00,67.000000,,2013-06-04 05:12:00,
2013-06-03 19:22:00,69.0,62.0,-100.00,West,280,7.0,15.0,78,0.00,,,0.00,67.000000,,2013-06-04 05:22:00,
2013-06-03 19:32:00,69.0,62.0,-100.00,West,280,7.0,15.0,78,0.00,,,0.00,67.000000,,2013-06-04 05:32:00,
2013-06-03 19:42:00,69.0,62.0,-100.00,West,280,7.0,15.0,78,0.00,,,0.00,67.000000,,2013-06-04 05:42:00,
2013-06-03 20:12:00,66.0,61.0,-100.00,NW,312,4.0,10.0,84,0.00,,,0.00,2.000000,,2013-06-04 06:12:00,
2013-06-03 20:22:00,66.0,61.0,-100.00,NW,312,4.0,10.0,84,0.00,,,0.00,2.000000,,2013-06-04 06:22:00,
2013-06-03 20:32:00,66.0,61.0,-100.00,NW,312,4.0,10.0,84,0.00,,,0.00,2.000000,,2013-06-04 06:32:00,
2013-06-03 20:42:00,66.0,61.0,-100.00,NW,312,4.0,10.0,84,0.00,,,0.00,2.000000,,2013-06-04 06:42:00,
2013-06-03 21:12:00,63.0,61.0,-100.00,NNE,24,3.0,5.0,92,0.00,,,0.00,0.000000,,2013-06-04 07:12:00,
2013-06-03 21:22:00,63.0,61.0,-100.00,NNE,24,3.0,5.0,92,0.00,,,0.00,0.000000,,2013-06-04 07:22:00,
2013-06-03 21:32:00,63.0,61.0,-100.00,NNE,24,3.0,5.0,92,0.00,,,0.00,0.000000,,2013-06-04 07:32:00,
2013-06-03 21:42:00,63.0,61.0,-100.00,NNE,24,3.0,5.0,92,0.00,,,0.00,0.000000,,2013-06-04 07:42:00,
2013-06-03 22:12:00,62.0,60.0,-100.00,NNW,346,5.0,8.0,92,0.00,,,0.00,0.000000,,2013-06-04 08:12:00,
2013-06-03 22:22:00,62.0,60.0,-100.00,NNW,346,5.0,8.0,92,0.00,,,0.00,0.000000,,2013-06-04 08:22:00,
2013-06-03 22:32:00,62.0,60.0,-100.00,NNW,346,5.0,8.0,92,0.00,,,0.00,0.000000,,2013-06-04 08:32:00,
2013-06-03 22:42:00,62.0,60.0,-100.00,NNW,346,5.0,8.0,92,0.00,,,0.00,0.000000,,2013-06-04 08:42:00,
2013-06-03 23:12:00,60.0,58.0,-100.00,North,351,4.0,8.0,93,0.00,,,0.00,0.000000,,2013-06-04 09:12:00,
2013-06-03 23:22:00,60.0,58.0,-100.00,North,351,4.0,8.0,93,0.00,,,0.00,0.000000,,2013-06-04 09:22:00,
2013-06-03 23:32:00,60.0,58.0,-100.00,North,351,4.0,8.0,93,0.00,,,0.00,0.000000,,2013-06-04 09:32:00,
2013-06-03 23:42:00,60.0,58.0,-100.00,North,351,4.0,8.0,93,0.00,,,0.00,0.000000,,2013-06-04 09:42:00,